This is the latest recevied weather packets stored in our database for station/object N6DZK. If no packets are shown the sender has not sent any weather packets the latest 10 day(s).
| Time | Temp. | Humidity | Pressure | Rain* | Wind** | Luminosity | Snow |
|---|---|---|---|---|---|---|---|
| 1777470495 | 7.78° C | 97% | 1019.7 hPa | 0 mm | - | 35 W/m² | - |
| 1777470190 | 7.78° C | 97% | 1019.6 hPa | 0 mm | - | 18 W/m² | - |
| 1777469887 | 7.78° C | 97% | 1019.6 hPa | 0 mm | - | 14 W/m² | - |
| 1777469583 | 7.22° C | 97% | 1019.5 hPa | 0 mm | - | 11 W/m² | - |
| 1777469277 | 7.22° C | 97% | 1019.6 hPa | 0 mm | - | 8 W/m² | - |
| 1777468973 | 7.22° C | 97% | 1019.4 hPa | 0 mm | - | 6 W/m² | - |
| 1777468669 | 6.67° C | 97% | 1019.2 hPa | 0 mm | - | 4 W/m² | - |
| 1777468366 | 6.67° C | 97% | 1019.2 hPa | 0 mm | - | 3 W/m² | - |
| 1777468062 | 6.67° C | 97% | 1019.2 hPa | 0 mm | - | 1 W/m² | - |
| 1777467758 | 6.67° C | 97% | 1019.2 hPa | 0 mm | - | 1 W/m² | - |
| 1777467453 | 6.67° C | 97% | 1018.9 hPa | 0 mm | - | 0 W/m² | - |
| 1777467148 | 6.67° C | 96% | 1019 hPa | 0 mm | - | 0 W/m² | - |
| 1777466846 | 6.11° C | 96% | 1018.9 hPa | 0 mm | - | 0 W/m² | - |
| 1777466544 | 6.11° C | 96% | 1018.8 hPa | 0 mm | - | 0 W/m² | - |
| 1777466241 | 6.11° C | 96% | 1018.7 hPa | 0 mm | - | 0 W/m² | - |
| 1777465936 | 6.11° C | 96% | 1018.5 hPa | 0 mm | - | 0 W/m² | - |
| 1777465633 | 6.11° C | 96% | 1018.6 hPa | 0 mm | - | 0 W/m² | - |
| 1777465329 | 6.11° C | 96% | 1018.6 hPa | 0 mm | - | 0 W/m² | - |
| 1777465027 | 6.67° C | 96% | 1018.6 hPa | 0 mm | - | 0 W/m² | - |
| 1777464722 | 6.67° C | 96% | 1018.6 hPa | 0 mm | - | 0 W/m² | - |
| 1777464419 | 6.67° C | 96% | 1018.8 hPa | 0 mm | - | 0 W/m² | - |
| 1777464115 | 6.67° C | 96% | 1018.7 hPa | 0 mm | - | 0 W/m² | - |
| 1777463815 | 6.67° C | 95% | 1018.7 hPa | 0 mm | - | 0 W/m² | - |
| 1777463510 | 6.67° C | 95% | 1018.6 hPa | 0 mm | - | 0 W/m² | - |
| 1777463206 | 6.67° C | 95% | 1018.6 hPa | 0 mm | - | 0 W/m² | - |
* Rain latest hour (hover to see other rain measurements)
** Current wind speed in m/s (hover to see current wind gust speed)